Torna al catalogo

COSMOS 2251 DEB

AttivoLEO
NORAD 35789·DEBRIS·🇷🇺 Russia

Lanciato Jun 16, 1993 da Plesetsk Cosmodrome

Loading…

Prossimi Passaggi (prossime 24 ore)

TLE

In scadenzaSource: Space-Track

Epoca: Sep 11, 2026, 02:51 UTC

1 35789U 93036ASK 26254.11897509  .00000149  00000-0  59483-4 0  9999
2 35789  74.0385 144.3370 0048046 180.0475 180.0682 14.36145030651374

Traccia COSMOS 2251 DEB in tempo reale con AllMySat

Download on the App Store